This is the latest recevied weather packets stored in our database for station/object KI5NXU. If no packets are shown the sender has not sent any weather packets the latest 10 day(s).
| Time | Temp. | Humidity | Pressure | Rain* | Wind** | Luminosity | Snow |
|---|---|---|---|---|---|---|---|
| 1788033694 | 40° C | 31% | 1015 hPa | 0 mm | - | 661 W/m² | - |
| 1788033393 | 39.44° C | 31% | 1014.9 hPa | 0 mm | - | 672 W/m² | - |
| 1788033088 | 39.44° C | 31% | 1015.3 hPa | 0 mm | - | 679 W/m² | - |
| 1788032787 | 38.33° C | 31% | 1015.3 hPa | 0 mm | - | 711 W/m² | - |
| 1788032482 | 38.89° C | 31% | 1015.4 hPa | 0 mm | - | 704 W/m² | - |
| 1788032178 | 38.89° C | 30% | 1015.3 hPa | 0 mm | - | 684 W/m² | - |
| 1788031875 | 39.44° C | 31% | 1015.6 hPa | 0 mm | - | 710 W/m² | - |
| 1788031574 | 38.89° C | 31% | 1015.7 hPa | 0 mm | - | 707 W/m² | - |
| 1788031273 | 38.89° C | 31% | 1015.7 hPa | 0 mm | - | 672 W/m² | - |
| 1788030972 | 38.33° C | 29% | 1015.9 hPa | 0 mm | - | 670 W/m² | - |
| 1788030667 | 38.89° C | 30% | 1016 hPa | 0 mm | - | 632 W/m² | - |
| 1788030361 | 38.89° C | 31% | 1015.8 hPa | 0 mm | - | 591 W/m² | - |
| 1788030058 | 39.44° C | 29% | 1015.9 hPa | 0 mm | - | 605 W/m² | - |
| 1788029752 | 38.89° C | 30% | 1015.8 hPa | 0 mm | - | 645 W/m² | - |
| 1788029447 | 38.33° C | 31% | 1015.9 hPa | 0 mm | - | 663 W/m² | - |
| 1788029146 | 37.78° C | 33% | 1016.1 hPa | 0 mm | - | 691 W/m² | - |
| 1788028840 | 37.22° C | 33% | 1016.2 hPa | 0 mm | - | 681 W/m² | - |
| 1788028540 | 37.78° C | 33% | 1016 hPa | 0 mm | - | 665 W/m² | - |
| 1788028235 | 38.89° C | 31% | 1016.2 hPa | 0 mm | - | 651 W/m² | - |
| 1788027931 | 38.33° C | 31% | 1016.4 hPa | 0 mm | - | 670 W/m² | - |
| 1788027626 | 38.89° C | 31% | 1016.6 hPa | 0 mm | - | 705 W/m² | - |
| 1788027329 | 38.89° C | 32% | 1016.4 hPa | 0 mm | - | 702 W/m² | - |
| 1788027019 | 37.22° C | 31% | 1016.4 hPa | 0 mm | - | 685 W/m² | - |
| 1788026714 | 37.78° C | 34% | 1016.8 hPa | 0 mm | - | 692 W/m² | - |
| 1788026411 | 37.22° C | 34% | 1016.8 hPa | 0 mm | - | 727 W/m² | - |
* Rain latest hour (hover to see other rain measurements)
** Current wind speed in m/s (hover to see current wind gust speed)